sat.trackr.live / text

‹ back to catalog

STARLINK-35025

NORAD 65430 · 2025-192AC

PAYLOAD ACTIVE UNKNOWN

§ Identity

Operator
Country
US
Launch date
2025-08-31
Launch site
AFETR
Launch vehicle
Mass (kg)
RCS (m²)

Purposes: comms

External: N2YO · Heavens-Above · Gunter

§ Orbital elements

Epoch: 2026-05-24T23:09:55.778688Z

Period
93.85 min
Inclination
53.1581°
Eccentricity
0.0001288
Mean motion
15.34402112 rev/d
Perigee alt
461.8 km
Apogee alt
463.6 km
Semi-major
6,840.8 km
B*
7.3513e-4
RAAN
237.9626°
Arg perigee
83.0792°
Mean anomaly
277.0358°
Rev number
4,106

§ Raw data

STARLINK-350251 65430U 25192AC  26144.96522892  .00024544  00000+0  73513-3 0  99972 65430  53.1581 237.9626 0001288  83.0792 277.0358 15.34402112 41062

JSON: /api/v1/satellites/65430 · /tle

For live sub-satellite position, see the globe view (requires WebGL).

§ Visibility from observer

Set your observer location to see the next 7 days of passes ≥ 10°. The values pass through the URL so the page stays shareable.

No JS? Fill the form by hand. The geolocation button needs JavaScript.